078  
ASUS42 KCHS 190727  
RWRCHS  
 
REGIONAL WEATHER ROUNDUP  
NATIONAL WEATHER SERVICE CHARLESTON SC  
200 AM EST FRI JAN 19 2018  
 
NOTE: "FAIR" INDICATES FEW OR NO CLOUDS BELOW 12,000 FEET WITH NO  
SIGNIFICANT WEATHER AND/OR S TO VISIBILITY
.  
 
NOT ALL STATIONS ARE QUALITY CONTROLLED. USE DATA WITH CAUTION,  
ESPECIALLY DEWPOINT OBSERVATIONS.  
 
SCZ027-030-031-034>040-042>050-190800-   
..SOUTHEAST SOUTH CAROLINA
 
 
 
CITY SKY/WX TMP DP RH WIND PRES REMARKS
 
N CHARLESTON FAIR 32 17 54 W5 30.30F WCI 27  
WATERFRONT PRK NOT AVBL  
MOUNT PLEASANT FAIR 32 21 64 CALM 30.30F  
JOHNS ISLAND FAIR 28 21 74 CALM 30.30F  
PINOPOLIS N/A 36 21 55 W7 30.22F WCI 30  
MONCKS CORNER FAIR 27 18 69 CALM 30.29F  
SUMMERVILLE FAIR 27 21 80 CALM 30.30F  
BEAUFORT MCAS FAIR 27 22 81 CALM 30.31F  
BEAUFORT ARPT FAIR 32 23 69 W5 30.31S WCI 27  
HILTON HEAD IS FAIR 34 18 51 W5 30.33R WCI 30  
WALTERBORO FAIR 28 21 74 CALM 30.31S  
ALLENDALE FAIR 28 19 69 CALM 30.29S  
   
..SOUTHERN MIDLANDS AND PEE DEE
 
 
 
CITY SKY/WX TMP DP RH WIND PRES REMARKS
 
GEORGETOWN FAIR 28 19 69 W3 30.30S  
KINGSTREE FAIR 25 21 86 CALM 30.28F  
ORANGEBURG FAIR 30 17 58 SW3 30.28F  
BARNWELL N/A 28 19 69 CALM 30.28F  
AIKEN FAIR 27 18 69 SW6 30.29S WCI 20  
MANNING FAIR 28 21 74 MISG 30.28S  
COLUMBIA FAIR 27 20 75 W3 30.27F  
SUMTER FAIR 33 15 46 CALM 30.25F  
FLORENCE FAIR 27 19 72 W3 30.28S  
MYRTLE BEACH FAIR 31 20 63 W6 30.29F WCI 25  
N MYRTLE BEACH FAIR 30 21 69 CALM 30.27F  
 

 
 
GAZ063-065-086>088-099>101-113>116-118-119-134>141-150-190800-   
..SOUTHEAST GEORGIA
 
 
 
CITY SKY/WX TMP DP RH WIND PRES REMARKS
 
SAVANNAH ARPT FAIR 29 19 66 CALM 30.33S  
HUNTER AAF FAIR 27 19 70 W5 30.30S WCI 22  
FORT STEWART FAIR 28 20 73 CALM 30.32R  
STATESBORO FAIR 25 20 83 CALM 30.31F  
SYLVANIA FAIR 27 24 88 CALM 30.31F  
CLAXTON FAIR 26 24 89 CALM 30.33S  
   
..CSRA, CENTRAL AND FAR SOUTHEAST GEORGIA
 
 
 
CITY SKY/WX TMP DP RH WIND PRES REMARKS
 
THOMSON FAIR 26 15 63 W3 30.31F  
AUGUSTA-BUSH FAIR 25 18 74 CALM 30.29F  
AUGUSTA-DANIEL FAIR 33 14 45 CALM 30.28F  
SWAINSBORO FAIR 32 19 59 W5 30.32S WCI 27  
VIDALIA FAIR 32 21 64 W3 30.33S  
EASTMAN FAIR 26 18 71 CALM 30.36F  
HAZLEHURST FAIR 31 19 61 CALM 30.33S  
ALMA FAIR 26 21 81 CALM 30.34S  
WAYCROSS FAIR 27 21 80 CALM 30.34S  
JESUP FAIR 27 19 74 CALM 30.34R  
BAXLEY FAIR 27 23 86 CALM 30.33F  
BRUNSWICK FAIR 27 23 86 CALM 30.35R  
SAINT SIMONS FAIR 31 24 75 W3 30.34S  
 

 
 
SCZ027-028-034-036>038-045-046-048>050-GAZ119-141-190800-   
..LAKE AND SUPPLEMENTAL COASTAL OBSERVATIONS
 
 
 
STATION/POSITION TIME TEMP WIND PRES WAVE SWELL
 
AIR SEA DIR/SP/G HT/PER HT/PER/DIR  
(UTC) (F) (DEG/KT/KT) (MB) (FT/S) (FT/S/D)  
WINYAH BAY 0630 37 290/ 5 1026.0S  
LAKE MURRAY 0650 38 250/ 6/ 8 1024.0F  
ACE BASIN NERRS 0645 28 CALM 1026.0F  
FORT PULASKI 0700 38 45 290/ 9/ 9 1027.0  
SAPELO ISLAND 0700 35 270/ 4 1027.0  
 

 
 
ANZ835-935-AMZ111-154-330-350-352-354-370-450-454-472-190800-   
..C-MAN AND BUOY OBSERVATIONS
 
 
 
STATION/POSITION TIME TEMP WIND PRES WAVE SWELL
 
AIR SEA DIR/SP/G HT/PER HT/PER/DIR  
(UTC) (F) (DEG/KT/KT) (MB) (FT/S) (FT/S/D)  
BUOY 41004 0710 50 69 300/ 14/ 17 1025.5  
BUOY 41008 0650 46 51 270/ 10/ 12 1026.6F 2/11 2/ 50/11  
FOLLY BEACH CMAN 0700 35 270/ 3/ 3 1026.4F  
CAPERS NEARSHORE 0708 38 47 280/ 12/ 14 1025.7F  
FRIPP NEARSHORE 0708 38 45 300/ 8/ 10 1025.5R  
 
 
STATION/POSITION TIME TEMP WIND PRES WAVE SWELL
 
AIR SEA DIR/SP/G HT/PER HT/PER/DIR  
(UTC) (F) (DEG/KT/KT) (MB) (FT/S) (FT/S/D)  
5E ST. MARYS GA 0700 47 N/A 2/11 2/ 70/11  
FRYING PAN BUOY 0710 48 64 290/ 17/ 23 1024.9  
BUOY 41025 0710 42 290/ 17/ 21 1023.6  
CAPE LOOKOUT NC 0700 290/ 16/ 20 1023.6F  
BUOY 41002 0650 55 70 300/ 10/ 14 1023.8R 10/11 10/ 40/11  
BUOY 41010 NOT AVBL  
ST AUGUSTINE FL 0700 36 48 260/ 7/ 7 1027.9F  
 

 
 
 
CLICK HERE TO GO TO PREVIOUS BULLETINS.

The Nexlab SC Page
The Nexlab GA Page Main Text Page